COSMOS 2609

导读

COSMOS 2609(NORAD编号68754)是俄罗斯于2026年4月发射的军用卫星,延续了苏联/俄罗斯自冷战以来以“宇宙(Cosmos)”命名军事航天任务的传统。该卫星轨道倾角约96.95度,近地点高度约539公里,远地点约554公里,属于近地轨道军事载荷,由联盟火箭搭载升空。作为最新入列的“宇宙”系列卫星,它大概率承担光学侦察、电子监测或通信中继等军事任务,目前由美国太空司令部完成轨道测量编号,具体任务细节仍未公开。

Basic Information
目录编号:
68754
目录名称:
COSMOS 2609
国际标识:
2026-083B
轨道中心:
EARTH
卫星名称:
COSMOS 2609
卫星全名:
COSMOS 2609
卫星状态:
在轨 (已飞行59 天)
发射日期:
2026-04-16 UTC
国别 :
俄罗斯(独联体) (CIS)
星等 :
--
Orbit Information
数据来源 国际轨道数据
星历时间: 2026-06-15T01:16:34+0800
6小时前
查看轨道信息
半长轴: 6922.385km
偏心率: 0.0012543
轨道倾角: 98.122°
近地点辐角 81.168°
升交点赤经 314.479°
平近点角 279.097°
近地点: 535.565km
远地点: 552.931km
周期: 95.531分钟
每日圈数: 15.073676
Detailed Information
使用方式:
暂无
2D Orbit Map
3D Orbit Map
Orbit Altitude Analysis Chart
Orbit Inclination Analysis Chart
Orbit Comprehensive Analysis Chart
View Comprehensive Chart